Waarnemingen

Advertentie
Mijn weer
Perpignan, Frankrijk (7747): temperatuur & dauwpunt: 22.02.2017 10:00:00 - 28.02.2017 10:00:00 (CET)Perpignan, Frankrijk (7747): temperatuur 5cm: 22.02.2017 10:00:00 - 28.02.2017 10:00:00 (CET)Perpignan, Frankrijk (7747): temperatuur -20cm & temperatuur -100cm: 22.02.2017 10:00:00 - 28.02.2017 10:00:00 (CET)Perpignan, Frankrijk (7747): windsnelheid & windstoten: 22.02.2017 10:00:00 - 28.02.2017 10:00:00 (CET)Perpignan, Frankrijk (7747): windrichting: 22.02.2017 10:00:00 - 28.02.2017 10:00:00 (CET)Perpignan, Frankrijk (7747): luchtdruk: 22.02.2017 10:00:00 - 28.02.2017 10:00:00 (CET)Perpignan, Frankrijk (7747): zicht: 22.02.2017 10:00:00 - 28.02.2017 10:00:00 (CET)Perpignan, Frankrijk (7747): Zonneschijnduur: 22.02.2017 10:00:00 - 28.02.2017 10:00:00 (CET)Perpignan, Frankrijk (7747): neerslag: 22.02.2017 10:00:00 - 28.02.2017 10:00:00 (CET)
Datum & Tijd tt [°C] td [°C] tt 5cm [°C] tt -20cm [°C] tt -100cm [°C] ff [km/u] ff [kn] fx [km/u] fx [kn] dd ppp [hPa] vv [km] sd [min] rr [mm]
28.02.2017 10:00:00 10,1 7,2 9,5 10,4 12,1 5 3 13 7 WZW 1007,7 16 0 0,0
28.02.2017 09:00:00 9,1 6,2 7,8 10,5 12,0 8 4 13 7 ZW 1008,1 22 0 0,0
28.02.2017 08:00:00 8,2 6,0 7,4 10,6 12,0 9 5 12 6 ZW 1007,9 17 0 0,0
28.02.2017 07:00:00 8,3 6,4 6,7 10,6 12,1 7 4 19 10 WZW 1008,0 19 0 0,0
28.02.2017 06:00:00 7,5 5,6 4,7 10,8 12,1 11 6 18 10 W 1008,1 20 0 0,0
28.02.2017 05:00:00 6,2 4,7 3,9 10,9 12,1 11 6 16 9 WZW 1008,3 14 0 0,0
28.02.2017 04:00:00 6,4 5,2 2,8 11,0 12,1 6 3 11 6 ZZW 1008,5 9 0 0,0
28.02.2017 03:00:00 6,5 5,0 2,8 11,3 12,0 2 1 8 5 W 1008,9 13 0 0,0
28.02.2017 02:00:00 7,4 5,5 3,9 11,3 12,0 3 1 19 11 N 1009,2 14 0 0,0
28.02.2017 01:00:00 7,6 6,2 3,5 11,4 12,1 9 5 17 9 NW 1009,4 11 0 0,0
28.02.2017 00:00:00 7,6 6,1 4,6 11,6 12,1 3 2 14 8 NW 1009,2 13 0 0,0
27.02.2017 23:00:00 8,3 6,4 5,8 11,7 12,1 11 6 15 8 WZW 1009,5 14 0 0,0
27.02.2017 22:00:00 9,1 6,7 7,1 11,7 12,0 9 5 13 7 W 1009,5 13 0 0,0
27.02.2017 21:00:00 11,5 8,4 10,7 11,6 12,1 9 5 13 7 WZW 1009,2 8 0 0,0
27.02.2017 20:00:00 11,7 8,7 10,9 11,7 12,1 5 3 6 3 ZW 1009,4 11 0 0,0
27.02.2017 19:00:00 11,8 8,5 11,2 11,5 12,1 0 0 7 4 N 1009,5 11 0 0,0
27.02.2017 18:00:00 12,2 8,5 12,4 11,4 12,1 5 3 10 6 NO 1009,2 13 0 0,0
27.02.2017 17:00:00 12,8 8,3 13,7 11,1 12,0 6 3 13 7 O 1009,3 16 0 0,0
27.02.2017 16:00:00 13,2 7,8 14,8 11,0 12,1 6 3 14 8 O 1010,2 20 2 0,0
27.02.2017 15:00:00 13,2 7,2 16,3 10,6 12,1 6 4 11 6 NNO 1011,0 20 5 0,0
27.02.2017 14:00:00 12,7 7,6 15,0 10,4 12,1 3 2 10 5 N 1011,7 17 2 0,0
27.02.2017 13:00:00 11,1 7,8 11,9 10,1 12,1 4 2 8 5 ONO 1013,1 15 0 0,0
27.02.2017 12:00:00 9,5 7,6 10,2 10,0 12,0 4 2 16 8 ONO 1014,0 12 0 0,0
27.02.2017 11:00:00 8,4 6,9 9,4 10,0 12,1 12 6 18 10 NO 1014,3 11 0 0,0
27.02.2017 10:00:00 8,1 7,5 8,0 10,0 12,1 13 7 23 12 NO 1014,6 5 8 0,0
27.02.2017 09:00:00 7,7 6,3 5,2 10,1 12,1 16 8 22 12 NO 1014,4 17 23 0,0
27.02.2017 08:00:00 5,1 3,9 0,6 10,2 12,1 9 5 12 6 N 1014,6 21 0 0,0
27.02.2017 07:00:00 4,2 3,0 0,2 10,4 12,1 3 2 9 5 ZZW 1014,6 26 0 0,0
27.02.2017 06:00:00 3,8 2,6 0,0 10,6 12,1 6 3 8 5 NW 1014,7 27 0 0,0
27.02.2017 05:00:00 4,4 3,1 0,5 10,7 12,1 0 0 9 5 N 1015,0 25 0 0,0
27.02.2017 04:00:00 4,8 3,3 0,9 10,9 12,1 3 2 6 4 WZW 1015,3 26 0 0,0
27.02.2017 03:00:00 5,4 3,6 1,2 11,1 12,1 4 2 6 4 W 1015,9 23 0 0,0
27.02.2017 02:00:00 6,2 4,4 2,1 11,2 12,1 5 3 11 6 ZZO 1016,3 22 0 0,0
27.02.2017 01:00:00 7,1 5,1 2,1 11,4 12,1 5 3 8 4 ZW 1016,6 31 0 0,0
27.02.2017 00:00:00 7,1 4,9 3,1 11,6 12,1 7 4 10 5 W 1017,0 28 0 0,0
26.02.2017 23:00:00 7,6 5,2 3,5 11,7 12,1 11 6 12 7 ZW 1017,3 23 0 0,0
26.02.2017 22:00:00 8,4 5,5 3,9 11,9 12,1 2 1 9 5 ZW 1017,9 34 0 0,0
26.02.2017 21:00:00 9,0 6,1 5,2 12,0 12,1 10 5 12 7 W 1018,1 37 0 0,0
26.02.2017 20:00:00 10,2 6,9 6,5 12,1 12,2 4 2 8 5 NW 1018,3 27 0 0,0
26.02.2017 19:00:00 11,3 7,0 8,9 12,0 12,1 6 3 11 6 NO 1018,0 31 15 0,0
26.02.2017 18:00:00 13,3 7,1 13,0 11,9 12,2 9 5 13 7 NO 1017,9 47 60 0,0
26.02.2017 17:00:00 14,7 6,3 16,9 11,7 12,1 8 4 16 9 O 1018,1 48 60 0,0
26.02.2017 16:00:00 15,1 6,1 18,7 11,3 12,2 11 6 23 12 OZO 1018,5 60 60 0,0
26.02.2017 15:00:00 15,7 5,9 17,7 10,9 12,1 14 8 22 12 OZO 1019,0 20 60 0,0
26.02.2017 14:00:00 15,1 6,6 19,2 10,5 12,1 14 8 21 12 O 1019,7 60 60 0,0
26.02.2017 13:00:00 15,2 5,1 20,4 10,1 12,1 6 4 14 8 OZO 1020,7 60 60 0,0
26.02.2017 12:00:00 14,1 4,4 19,3 9,7 12,1 6 3 18 10 ZO 1021,6 57 60 0,0
26.02.2017 11:00:00 12,8 3,7 18,9 9,7 12,2 6 3 12 6 ZO 1021,9 18 60 0,0
26.02.2017 10:00:00 11,0 3,3 14,6 9,7 12,2 2 1 7 4 Z 1022,2 60 60 0,0
26.02.2017 09:00:00 6,8 1,9 4,0 9,7 12,1 2 1 10 5 ZZW 1022,2 59 60 0,0
26.02.2017 08:00:00 3,1 0,5 -1,0 9,9 12,2 7 4 11 6 WZW 1021,8 60 14 0,0
26.02.2017 07:00:00 2,4 -0,4 -1,6 10,1 12,2 6 3 9 5 WZW 1021,2 60 0 0,0
26.02.2017 06:00:00 2,0 -0,6 -1,4 10,3 12,2 3 1 4 2 ZZW 1021,2 60 0 0,0
26.02.2017 05:00:00 3,0 -0,1 -0,9 10,4 12,2 3 2 10 5 W 1021,1 60 0 0,0
26.02.2017 04:00:00 3,2 0,3 0,0 10,6 12,2 7 4 11 6 WZW 1021,1 60 0 0,0
26.02.2017 03:00:00 3,3 0,0 -0,4 10,8 12,2 7 4 10 6 WZW 1021,3 60 0 0,0
26.02.2017 02:00:00 4,0 -0,6 -0,4 11,0 12,2 2 1 10 5 WNW 1021,4 60 0 0,0
26.02.2017 01:00:00 4,2 -0,2 1,6 11,3 12,2 10 5 14 8 W 1021,3 60 0 0,0
26.02.2017 00:00:00 5,2 -0,4 1,8 11,4 12,2 8 5 16 8 WZW 1021,2 60 0 0,0
25.02.2017 23:00:00 5,2 -0,4 1,7 11,6 12,2 8 4 18 10 WZW 1021,1 60 0 0,0
25.02.2017 22:00:00 5,8 0,1 2,4 11,8 12,2 14 8 20 11 WZW 1020,8 60 0 0,0
25.02.2017 21:00:00 6,2 -0,8 1,6 12,0 12,2 5 3 8 4 N 1020,7 46 0 0,0
25.02.2017 20:00:00 7,0 -0,7 2,1 12,1 12,2 5 3 9 5 WNW 1020,6 60 0 0,0
25.02.2017 19:00:00 9,3 -2,0 2,9 12,2 12,2 3 2 13 7 WZW 1020,3 60 16 0,0
25.02.2017 18:00:00 11,7 -1,8 11,0 12,1 12,2 10 5 21 11 ZO 1020,3 57 60 0,0
25.02.2017 17:00:00 13,3 -2,3 14,8 12,0 12,2 16 8 27 15 OZO 1019,7 60 60 0,0
25.02.2017 16:00:00 14,2 -3,6 17,1 11,6 12,2 16 9 27 15 OZO 1019,7 60 60 0,0
25.02.2017 15:00:00 15,6 -3,4 17,7 11,3 12,2 7 4 19 10 ONO 1019,6 60 60 0,0
25.02.2017 14:00:00 15,0 -3,9 17,8 10,9 12,2 10 5 34 18 N 1020,2 60 60 0,0
25.02.2017 13:00:00 14,5 -4,8 17,9 10,7 12,2 24 13 38 21 N 1020,7 52 60 0,0
25.02.2017 12:00:00 13,8 -3,5 17,4 10,5 12,2 23 12 37 20 NNW 1020,9 49 60 0,0
25.02.2017 11:00:00 12,2 -1,7 14,4 10,4 12,2 25 14 50 27 NW 1021,0 51 60 0,0
25.02.2017 10:00:00 10,7 -1,4 12,4 10,4 12,2 29 15 46 25 NW 1020,6 60 60 0,0
25.02.2017 09:00:00 9,1 -1,9 8,3 10,5 12,2 18 10 37 20 NW 1020,7 60 60 0,0
25.02.2017 08:00:00 8,0 -2,1 6,0 10,7 12,2 26 14 43 23 NW 1020,2 54 17 0,0
25.02.2017 07:00:00 7,8 -1,5 6,6 10,7 12,2 25 14 48 26 NW 1019,6 60 0 0,0
25.02.2017 06:00:00 7,7 -1,3 6,8 10,9 12,2 24 13 44 24 NNW 1019,6 60 0 0,0
25.02.2017 05:00:00 8,2 -0,8 6,9 11,0 12,2 27 15 44 24 NNW 1019,1 60 0 0,0
25.02.2017 04:00:00 8,9 -1,0 7,7 11,1 12,2 31 17 58 31 NNW 1019,2 60 0 0,0
25.02.2017 03:00:00 8,9 -0,7 7,8 11,4 12,2 32 17 54 29 NW 1019,0 60 0 0,0
25.02.2017 02:00:00 8,9 -0,7 7,7 11,4 12,2 29 15 50 27 NW 1019,5 60 0 0,0
25.02.2017 01:00:00 9,2 -0,2 8,0 11,6 12,2 34 18 57 31 NW 1019,5 60 0 0,0
25.02.2017 00:00:00 9,4 -0,2 8,2 11,8 12,2 30 16 53 29 NW 1019,6 60 0 0,0
24.02.2017 23:00:00 9,5 -0,1 8,4 12,0 12,2 24 13 52 28 NW 1019,7 60 0 0,0
24.02.2017 22:00:00 9,9 -0,6 8,6 12,1 12,2 27 14 46 25 NW 1019,4 60 0 0,0
24.02.2017 21:00:00 10,4 -0,4 9,2 12,3 12,2 31 17 56 30 NW 1018,8 60 0 0,0
24.02.2017 20:00:00 10,5 0,5 9,5 12,4 12,1 27 14 62 34 NW 1018,1 60 0 0,0
24.02.2017 19:00:00 10,9 0,6 10,0 12,5 12,2 23 12 53 29 NNW 1017,4 60 7 0,0
24.02.2017 18:00:00 11,9 0,3 11,1 12,5 12,2 21 12 61 33 NW 1016,2 59 50 0,0
24.02.2017 17:00:00 12,9 0,6 13,8 12,5 12,1 35 19 78 42 NW 1015,3 29 60 0,0
24.02.2017 16:00:00 13,3 1,3 13,3 12,3 12,1 44 24 83 45 NW 1014,0 32 60 0,0
24.02.2017 15:00:00 12,3 2,4 13,1 12,2 12,1 45 24 79 43 NW 1014,0 32 45 0,0
24.02.2017 14:00:00 13,2 3,0 14,6 11,9 12,1 32 18 61 33 NW 1014,8 36 49 0,0
24.02.2017 13:00:00 12,4 4,6 14,7 11,8 12,1 34 18 62 33 NW 1015,6 44 42 0,0
24.02.2017 12:00:00 12,6 4,8 12,1 11,7 12,1 32 17 48 26 NW 1015,9 57 26 0,0
24.02.2017 11:00:00 11,5 4,5 12,5 11,6 12,1 36 19 54 29 NW 1015,8 57 0 0,0
24.02.2017 10:00:00 12,0 6,3 12,6 11,6 12,1 33 18 55 30 NNW 1014,9 41 0 0,0
24.02.2017 09:00:00 12,7 6,5 11,3 11,6 12,1 21 11 40 21 NW 1014,2 56 0 0,0
24.02.2017 08:00:00 12,3 6,6 11,1 11,7 12,1 14 8 42 23 NNW 1014,3 39 0 0,0
24.02.2017 07:00:00 12,4 6,4 10,7 11,8 12,1 14 7 30 16 WNW 1013,9 23 0 0,0
24.02.2017 06:00:00 12,5 6,7 11,2 11,8 12,1 16 9 32 17 WNW 1013,6 20 0 0,0
24.02.2017 05:00:00 12,3 7,2 11,1 11,9 12,1 13 7 25 14 WNW 1013,5 20 0 0,0
24.02.2017 04:00:00 12,9 7,1 11,8 11,9 12,1 17 9 33 18 WNW 1013,6 19 0 0,0
24.02.2017 03:00:00 12,9 6,9 11,1 11,9 12,1 10 6 29 16 WNW 1014,4 20 0 0,0
24.02.2017 02:00:00 13,0 6,8 11,4 11,9 12,1 10 5 37 20 NW 1014,4 18 0 0,0
24.02.2017 01:00:00 13,1 7,7 10,9 12,1 12,1 8 4 29 16 WNW 1015,1 16 0 0,0
24.02.2017 00:00:00 12,8 8,1 8,6 12,2 12,0 15 8 27 14 WNW 1014,9 16 0 0,0
23.02.2017 23:00:00 10,7 8,5 7,6 12,3 12,1 9 5 21 12 WNW 1014,9 11 0 0,0
23.02.2017 22:00:00 10,3 9,2 8,1 12,5 12,0 10 5 16 9 N 1013,8 2,4 0 0,0
23.02.2017 21:00:00 10,9 9,7 7,6 12,5 12,1 3 1 11 6 Z 1013,8 4,2 0 0,0
23.02.2017 20:00:00 11,0 9,4 8,2 12,6 12,1 3 2 7 4 ZZW 1013,3 4,2 0 0,0
23.02.2017 19:00:00 11,6 9,8 9,4 12,6 12,1 4 2 7 4 Z 1013,3 4,8 0 0,0
23.02.2017 18:00:00 12,2 10,1 11,8 12,5 12,0 5 3 10 5 N 1013,2 6 0 0,0
23.02.2017 17:00:00 12,6 10,1 13,4 12,3 12,0 3 2 9 5 O 1013,3 6 0 0,0
23.02.2017 16:00:00 12,8 10,2 14,2 12,1 12,0 7 4 13 7 O 1013,9 7 0 0,0
23.02.2017 15:00:00 13,0 10,2 15,6 11,8 12,0 11 6 18 10 ONO 1014,1 8 4 0,0
23.02.2017 14:00:00 14,3 10,3 18,6 11,5 12,0 11 6 18 10 ONO 1014,9 17 60 0,0
23.02.2017 13:00:00 14,5 9,7 19,3 11,1 12,0 11 6 16 9 ONO 1015,5 20 60 0,0
23.02.2017 12:00:00 14,2 8,6 19,6 10,9 12,0 10 5 16 9 ONO 1016,3 22 60 0,0
23.02.2017 11:00:00 13,2 7,2 18,5 10,8 12,0 7 4 10 6 NO 1016,2 36 60 0,0
23.02.2017 10:00:00 11,1 6,8 14,8 10,7 12,0 0 0 5 3 N 1016,3 31 60 0,0
23.02.2017 09:00:00 8,2 5,0 4,7 10,9 12,0 0 0 5 3 N 1016,7 39 60 0,0
23.02.2017 08:00:00 5,2 3,2 1,3 11,2 12,0 3 2 8 4 ZW 1016,3 45 13 0,0
23.02.2017 07:00:00 4,8 2,8 1,4 11,3 12,0 4 2 11 6 NNO 1015,8 42 0 0,0
23.02.2017 06:00:00 5,4 3,2 1,1 11,5 12,0 6 3 9 5 WZW 1016,1 43 0 0,0
23.02.2017 05:00:00 5,7 3,7 2,0 11,7 12,0 5 3 11 6 WZW 1016,1 43 0 0,0
23.02.2017 04:00:00 6,0 4,5 1,6 11,9 11,9 8 4 11 6 WZW 1016,5 35 0 0,0
23.02.2017 03:00:00 6,3 4,1 1,9 12,1 12,0 0 0 6 4 N 1017,0 45 0 0,0
23.02.2017 02:00:00 7,5 4,6 2,5 12,3 12,0 4 2 6 3 NNW 1017,5 45 0 0,0
23.02.2017 01:00:00 7,9 5,2 3,1 12,5 12,0 3 1 13 7 ZZW 1018,0 47 0 0,0
23.02.2017 00:00:00 8,9 5,8 4,0 12,7 11,9 4 2 11 6 N 1018,4 54 0 0,0
22.02.2017 23:00:00 9,9 5,9 4,4 12,9 11,9 11 6 18 10 W 1018,8 49 0 0,0
22.02.2017 22:00:00 9,9 7,1 4,4 13,1 11,9 3 2 10 5 ZW 1019,1 24 0 0,0
22.02.2017 21:00:00 11,0 8,6 6,9 13,2 12,0 11 6 15 8 WZW 1019,1 27 0 0,0
22.02.2017 20:00:00 11,2 8,6 6,9 13,4 11,9 11 6 14 7 W 1019,2 29 0 0,0
22.02.2017 19:00:00 13,7 8,7 7,2 13,4 11,9 6 3 7 4 ZW 1019,1 23 9 0,0
22.02.2017 18:00:00 16,2 9,4 15,3 13,3 11,9 4 2 10 5 NO 1018,8 31 60 0,0
22.02.2017 17:00:00 17,6 9,7 19,1 13,0 11,9 8 5 16 9 O 1019,0 41 60 0,0
22.02.2017 16:00:00 18,9 8,5 21,9 12,6 11,9 14 8 23 12 OZO 1019,3 59 60 0,0
22.02.2017 15:00:00 22,0 8,1 22,7 12,2 11,9 8 5 19 10 Z 1019,5 55 60 0,0
22.02.2017 14:00:00 20,5 7,1 24,8 11,8 11,9 11 6 21 11 Z 1020,3 60 60 0,0
22.02.2017 13:00:00 19,6 7,3 25,6 11,5 11,9 6 3 11 6 Z 1021,4 60 60 0,0
22.02.2017 12:00:00 18,2 7,0 23,6 11,2 11,9 4 2 8 5 Z 1022,1 56 60 0,0
22.02.2017 11:00:00 16,1 7,0 19,1 11,1 11,9 4 2 11 6 O 1022,5 57 60 0,0
22.02.2017 10:00:00 14,3 5,9 16,9 11,1 11,9 3 1 16 9 ZO 1022,4 18 60 0,0

tt = temperatuur
td = dauwpunt
tt 5cm = temperatuur 5cm
tt -20cm = temperatuur -20cm
tt -100cm = temperatuur -100cm
ff = windsnelheid
fx = windstoten
dd = windrichting
ppp = luchtdruk
vv = zicht
sd = Zonneschijnduur
rr = neerslag

Weerstations in de omgeving